FW6178 Weather Reports


time (UTC)temp
C
wind
direction
speed
KPH
gust
KPH
rain 1hr
cm
rain 24hr
cm
rain mn
cm
humidity
%
barometer
mb
20260504234535 22 43 4.8 12.9 0.00 0.00 0.00 37 1010.2
20260504233034 22 19 4.8 11.3 0.00 0.00 0.00 36 1010.1
20260504231536 22 67 3.2 9.7 0.00 0.00 0.00 38 1010.2
20260504230057 22 10 1.6 8.0 0.00 0.00 0.00 39 1010.2
20260504224537 22 32 1.6 8.0 0.00 0.00 0.00 33 1010.5
20260504223035 22 32 4.8 9.7 0.00 0.00 0.00 37 1010.5
20260504221544 22 56 3.2 11.3 0.00 0.00 0.00 35 1010.6
20260504220035 22 43 3.2 12.9 0.00 0.00 0.00 35 1010.8
20260504214535 22 46 4.8 9.7 0.00 0.00 0.00 37 1010.9
20260504213042 22 352 1.6 6.4 0.00 0.00 0.00 35 1010.9
20260504211535 22 9 0.0 9.7 0.00 0.00 0.00 37 1011.0
20260504210035 22 44 3.2 11.3 0.00 0.00 0.00 38 1011.2
20260504204539 21 352 0.0 9.7 0.00 0.00 0.00 38 1011.3
20260504203041 21 25 3.2 8.0 0.00 0.00 0.00 36 1011.2
20260504201533 21 23 1.6 8.0 0.00 0.00 0.00 38 1011.3
20260504200036 21 331 1.6 11.3 0.00 0.00 0.00 40 1011.3
20260504194537 21 32 4.8 8.0 0.00 0.00 0.00 38 1011.5
20260504193035 20 36 1.6 6.4 0.00 0.00 0.00 40 1011.4
20260504191540 20 17 1.6 9.7 0.00 0.00 0.00 40 1011.5
20260504190038 20 39 1.6 12.9 0.00 0.00 0.00 40 1011.5
20260504184535 20 75 3.2 6.4 0.00 0.00 0.00 45 1011.7
20260504183036 19 48 8.0 16.1 0.00 0.00 0.00 41 1011.8
20260504181535 19 24 1.6 9.7 0.00 0.00 0.00 41 1011.9
20260504180042 18 53 3.2 6.4 0.00 0.00 0.00 43 1011.9
20260504174541 18 329 3.2 6.4 0.00 0.00 0.00 44 1012.2
20260504173037 18 46 4.8 9.7 0.00 0.00 0.00 43 1012.2
20260504171536 17 334 3.2 11.3 0.00 0.00 0.00 44 1012.2
20260504081537 6 0 0.0 0.0 0.00 0.00 0.00 88 1009.9
20260504044536 11 0 0.0 0.0 0.00 0.00 0.00 74 1009.7
20260504043035 11 0 0.0 0.0 0.00 0.00 0.00 78 1009.4
20260504041535 11 0 0.0 0.0 0.00 0.00 0.00 76 1009.4
20260504040041 12 0 0.0 0.0 0.00 0.00 0.00 72 1009.5
20260504034543 13 0 0.0 0.0 0.00 0.00 0.00 70 1009.4
20260504033038 13 0 0.0 0.0 0.00 0.00 0.00 68 1009.3
20260504031544 15 0 0.0 0.0 0.00 0.00 0.00 64 1009.1
20260504030036 16 0 0.0 0.0 0.00 0.00 0.00 61 1009.1
20260504024534 17 0 0.0 0.0 0.00 0.00 0.00 55 1008.9
20260504023041 19 0 0.0 0.0 0.00 0.00 0.00 49 1008.9
20260504021542 21 0 0.0 1.6 0.00 0.00 0.00 45 1008.8
20260504020041 22 0 0.0 1.6 0.00 0.00 0.00 38 1008.8
20260504014536 22 48 3.2 6.4 0.00 0.00 0.00 39 1008.9
20260504013037 23 46 0.0 3.2 0.00 0.00 0.00 39 1008.9
20260504011535 23 46 1.6 4.8 0.00 0.00 0.00 35 1008.9
20260504010034 23 48 1.6 6.4 0.00 0.00 0.00 37 1008.9
20260504004539 25 70 1.6 3.2 0.00 0.00 0.00 35 1009.2
20260504003045 26 266 0.0 4.8 0.00 0.00 0.00 29 1009.4
20260504001541 26 288 1.6 4.8 0.00 0.00 0.00 28 1009.6
20260504000054 26 245 1.6 4.8 0.00 0.00 0.00 28 1009.5